CDT,Max TemperatureF,Mean TemperatureF,Min TemperatureF,Max Dew PointF,MeanDew PointF,Min DewpointF,Max Humidity, Mean Humidity, Min Humidity, Max Sea Level PressureIn, Mean Sea Level PressureIn, Min Sea Level PressureIn, Max VisibilityMiles, Mean VisibilityMiles, Min VisibilityMiles, Max Wind SpeedMPH, Mean Wind SpeedMPH, Max Gust SpeedMPH,PrecipitationIn, CloudCover, Events, WindDirDegrees
2012-9-1,84,76,68,72,70,68,100,81,61,29.95,29.88,29.80,10,6,1,21,10,31,0.87,7,Rain,267
2012-9-2,91,77,63,70,67,64,100,74,47,29.98,29.93,29.86,10,6,0,9,4,12,0.00,0,Fog,357
2012-9-3,100,85,70,71,68,67,84,59,33,29.90,29.86,29.81,10,10,10,14,5,26,0.00,0,,131
2012-9-4,99,87,74,71,67,63,79,55,31,29.89,29.83,29.77,10,10,10,10,5,13,0.00,0,,142
2012-9-5,93,82,70,73,67,62,84,66,47,29.86,29.82,29.78,10,10,2,31,5,37,0.27,1,Rain-Thunderstorm,248
2012-9-6,93,82,70,73,68,63,97,72,46,29.93,29.86,29.81,10,10,10,18,6,25,0.00,0,,79
2012-9-7,93,77,61,70,65,60,93,69,44,30.06,29.88,29.70,10,9,1,38,10,49,1.11,5,Rain-Thunderstorm,325
2012-9-8,75,65,54,58,52,45,100,70,40,30.17,30.09,30.05,10,10,8,17,7,24,0.00,0,,338
2012-9-9,77,67,56,53,52,50,86,63,40,30.14,30.10,30.05,10,10,9,14,6,22,0.00,0,,357
2012-9-10,82,67,52,56,52,49,93,63,33,30.17,30.11,30.04,10,10,10,14,6,16,0.00,0,,138
2012-9-11,87,75,63,58,55,52,78,55,31,30.09,30.04,29.99,10,10,10,18,11,22,0.00,0,,169
2012-9-12,85,76,66,61,58,55,73,57,40,30.09,30.04,29.99,10,10,10,21,12,25,0.00,0,,164
2012-9-13,81,69,57,65,59,55,93,76,58,30.28,30.17,30.06,10,9,2,22,9,28,0.21,5,Rain,31
2012-9-14,61,58,54,59,56,54,100,95,90,30.30,30.26,30.24,10,6,1,15,9,22,2.03,8,Rain,47
2012-9-15,68,64,60,63,61,59,100,91,81,30.25,30.18,30.10,10,6,1,14,7,17,2.30,8,Rain,93
2012-9-16,73,68,62,66,63,61,100,87,73,30.12,30.05,29.97,10,9,3,7,2,12,T,7,Rain,93
2012-9-17,78,69,60,63,61,54,100,80,60,29.96,29.92,29.83,10,6,0,20,4,29,T,3,Fog,193
2012-9-18,70,59,48,52,47,43,100,69,37,30.12,30.06,29.96,10,10,10,17,6,26,T,1,,359
2012-9-19,79,66,52,52,47,45,72,54,35,30.10,30.03,29.95,10,10,10,23,13,30,0.00,0,,180
2012-9-20,79,70,61,58,51,46,67,51,35,30.05,29.99,29.94,10,10,10,16,8,22,0.00,0,,150
2012-9-21,82,69,56,62,53,43,93,64,34,29.97,29.91,29.86,10,9,2,17,7,22,0.31,2,Rain-Thunderstorm,188
2012-9-22,73,61,49,51,45,37,89,61,33,30.24,30.12,29.97,10,10,10,16,6,25,0.00,0,,22
2012-9-23,71,60,48,45,41,37,71,52,33,30.32,30.25,30.19,10,10,10,14,6,17,0.00,1,,78
2012-9-24,80,67,54,60,52,44,66,56,45,30.19,30.02,29.87,10,10,10,25,13,32,0.00,0,,160
2012-9-25,88,79,69,64,60,55,64,52,40,29.95,29.86,29.78,10,10,10,30,16,39,0.00,1,Thunderstorm,200
2012-9-26,73,68,62,66,62,56,93,75,57,30.06,29.99,29.88,10,10,10,15,4,24,0.10,5,Rain,81
2012-9-27,80,72,64,66,64,60,100,77,54,30.13,30.09,30.05,10,10,6,20,2,63,T,5,Rain,23
2012-9-28,77,70,63,66,64,62,100,85,69,30.14,30.09,30.04,10,6,0,13,5,17,0.00,6,Fog,44
2012-9-29,74,67,59,63,59,51,93,75,57,30.12,30.06,29.99,10,9,6,12,6,18,0.00,4,,61
2012-9-30,73,64,54,56,53,50,93,71,49,29.99,29.93,29.86,10,10,10,9,3,13,0.00,0,,29